Weather in Tingri

China     28°34′59″N   86°34′11″E
temp.,
°C
wind,
m/s
gust,
m/s
humid.,
%
clouds,
%
prec.,
mm/h
press.,
hPa
HPBL,
m
27 january, wed
wed2723:00−11sw44200 0.0 1017133
02:00−12sw33120 0.0 101937
05:00−13sw33110 0.0 101833
08:00−14sw33120 0.0 101829
11:00−11sw12110 0.0 1018188
14:00−6sse1380 0.0 10151184
17:00−5ssw46100 0.0 10121370
20:00−9ssw44210 0.0 101498
28 january, thu
thu2823:00−10sw44170 0.0 1018101
02:00−12sw44110 0.0 101955
05:00−13sw33100 0.0 101837
08:00−14sw33100 0.0 101927
11:00−10ssw2280 0.0 1020190
14:00−6s2470 0.0 10171147
17:00−5ssw61090 0.0 10141793
20:00−9ssw56200 0.0 1016302
29 january, fri
fri2923:00−11ssw56200 0.0 1019218
02:00−13ssw45160 0.0 1019125
05:00−15ssw45240 0.0 1018123
08:00−16ssw55260 0.0 1020102
11:00−14ssw56160 0.0 1020487
14:00−9ssw51580 0.0 10152267
17:00−10sw69230 0.0 10121782
20:00−13ssw44400 0.0 1014797
30 january, sat
sat3023:00−14sw33460 0.0 1017433
02:00−15sw22420 0.0 1018190
05:00−16sw33360 0.0 101891
08:00−17sw12300 0.0 101822
11:00−14wnw01230 0.0 1018298
14:00−11nne12150 0.0 1015917
17:00−8e12140 0.0 10111394
20:00−10ssw44330 0.0 1012233
31 january, sun
sun3123:00−11ssw33360 0.0 1016125
02:00−12wsw12340 0.0 101733
05:00−13w11420 0.0 101721
08:00−14nw11440 0.0 101820
11:00−11nw01330 0.0 1020245
14:00−7nnw49140 0.0 10171869
17:00−5nw611100 0.0 10142294
20:00−7w33120 0.0 101569